sat.trackr.live / text

‹ back to catalog

GSAT0206 (GALILEO 10)

NORAD 40890 · 2015-045B

PAYLOAD ACTIVE UNKNOWN

§ Identity

Operator
Country
ESA
Launch date
2015-09-11
Launch site
FRGUI
Launch vehicle
Mass (kg)
RCS (m²)
8.88

Purposes: earth_obs, nav

External: N2YO · Heavens-Above · Gunter

§ Orbital elements

Epoch: 2026-09-13T10:40:29.063712Z

Period
844.71 min
Inclination
54.9249°
Eccentricity
0.0002560
Mean motion
1.70473171 rev/d
Perigee alt
23,214.7 km
Apogee alt
23,229.9 km
Semi-major
29,600.4 km
B*
0.0000e+0
RAAN
219.1683°
Arg perigee
350.6337°
Mean anomaly
9.3134°
Rev number
6,854

§ Raw data

GSAT0206 (GALILEO 10)1 40890U 15045B   26256.44478083  .00000007  00000+0  00000+0 0  99902 40890  54.9249 219.1683 0002560 350.6337   9.3134  1.70473171 68540

JSON: /api/v1/satellites/40890 · /tle

For live sub-satellite position, see the globe view (requires WebGL).

§ Visibility from observer

Set your observer location to see the next 7 days of passes ≥ 10°. The values pass through the URL so the page stays shareable.

No JS? Fill the form by hand. The geolocation button needs JavaScript.